EW2997 Weather Reports


time (UTC)temp
C
wind
direction
speed
KPH
gust
KPH
rain 1hr
cm
rain 24hr
cm
rain mn
cm
humidity
%
barometer
mb
20260831121549 20 220 0.0 0.0 0.00 0.00 0.00 91 1024.3
20260831114547 20 220 0.0 0.0 0.00 0.00 0.00 94 1024.0
20260831111546 19 138 0.0 0.0 0.00 0.00 0.00 95 1024.3
20260831104545 19 138 0.0 0.0 0.00 0.00 0.00 95 1024.0
20260831101545 19 138 0.0 0.0 0.00 0.00 0.00 96 1024.0
20260831094540 19 138 0.0 0.0 0.00 0.00 0.00 96 1023.7
20260831091536 19 138 0.0 0.0 0.00 0.00 0.00 95 1022.9
20260831084532 19 138 0.0 0.0 0.00 0.00 0.00 95 1022.9
20260831081532 19 138 0.0 0.0 0.00 0.00 0.00 96 1022.9
20260831074531 20 138 0.0 0.0 0.00 0.00 0.00 95 1022.9
20260831071527 20 138 0.0 0.0 0.00 0.00 0.00 94 1022.9
20260831064527 20 138 0.0 0.0 0.00 0.00 0.00 93 1023.3
20260831061523 21 138 3.2 3.2 0.00 0.00 0.00 88 1022.9
20260831054522 21 42 0.0 0.0 0.00 0.00 0.00 88 1023.3
20260831051518 21 42 0.0 0.0 0.00 0.00 0.00 89 1023.7
20260831044518 22 42 0.0 0.0 0.00 0.00 0.00 87 1023.7
20260831041515 22 264 0.0 0.0 0.00 0.00 0.00 92 1023.7
20260831034515 22 127 1.6 1.6 0.00 0.00 0.00 94 1023.3
20260831031513 22 217 0.0 0.0 0.00 0.00 0.00 93 1024.0
20260831024512 22 266 0.0 0.0 0.00 0.00 0.00 92 1024.0
20260831021509 23 299 0.0 0.0 0.00 0.00 0.00 90 1024.0
20260831014510 23 299 0.0 0.0 0.00 0.00 0.00 88 1024.0
20260831011508 23 54 0.0 0.0 0.00 0.00 0.00 88 1023.3
20260831004503 24 54 0.0 0.0 0.00 0.00 0.00 86 1022.9
20260831001502 24 54 0.0 0.0 0.00 0.00 0.00 83 1022.5
20260830234501 25 76 0.0 0.0 0.00 0.00 0.00 80 1022.2
20260830231459 26 76 0.0 0.0 0.00 0.00 0.00 79 1022.5
20260830224458 26 84 3.2 3.2 0.00 0.00 0.00 72 1022.2
20260830221455 27 70 0.0 0.0 0.00 0.00 0.00 68 1022.2
20260830214451 27 36 0.0 0.0 0.00 0.00 0.00 57 1022.2
20260830211449 29 12 1.6 1.6 0.00 0.00 0.00 46 1022.2
20260830204448 29 246 0.0 0.0 0.00 0.00 0.00 51 1022.2
20260830201446 30 240 0.0 0.0 0.00 0.00 0.00 51 1022.2
20260830194446 28 246 3.2 3.2 0.00 0.00 0.00 53 1022.5
20260830191443 29 324 3.2 3.2 0.00 0.00 0.00 52 1023.3
20260830184440 28 253 4.8 6.4 0.00 0.00 0.00 57 1023.7
20260830181436 27 78 3.2 3.2 0.00 0.00 0.00 60 1024.0
20260830174431 28 196 3.2 3.2 0.00 0.00 0.00 63 1024.3
20260830171428 26 262 1.6 1.6 0.00 0.00 0.00 66 1024.7
20260830164426 26 241 6.4 6.4 0.00 0.00 0.00 67 1025.0
20260830161425 25 240 3.2 3.2 0.00 0.00 0.00 70 1025.0
20260830154421 25 174 4.8 4.8 0.00 0.00 0.00 70 1025.0
20260830151419 24 180 0.0 0.0 0.00 0.00 0.00 76 1025.3
20260830144418 23 256 1.6 1.6 0.00 0.00 0.00 79 1025.3
20260830141415 22 281 0.0 0.0 0.00 0.00 0.00 80 1025.3
20260830134415 21 257 0.0 0.0 0.00 0.00 0.00 83 1025.0
20260830131413 21 265 3.2 3.2 0.00 0.00 0.00 82 1025.7
20260830124409 20 319 0.0 0.0 0.00 0.00 0.00 85 1025.7